�������l�o���
Date,Time,MP-1(��Sv/h),MP-2(��Sv/h),MP-3(��Sv/h),MP-4(��Sv/h),MP-5(��Sv/h),MP-6(��Sv/h),MP-7(��Sv/h),MP-8(��Sv/h),����,����(m/s),���J
2022/06/17,00:00,0.573,0.840,0.531,1.008,0.711,0.345,0.590,0.558,�k��,0.9,��
2022/06/17,00:10,0.575,0.840,0.531,1.007,0.711,0.345,0.589,0.556,���k��,1.4,��
2022/06/17,00:20,0.572,0.841,0.531,1.010,0.712,0.346,0.590,0.557,���k��,0.9,��
2022/06/17,00:30,0.574,0.839,0.531,1.008,0.713,0.345,0.590,0.557,-,CALM,��
2022/06/17,00:40,0.575,0.841,0.531,1.009,0.709,0.345,0.589,0.557,-,CALM,��
2022/06/17,00:50,0.573,0.840,0.530,1.008,0.712,0.346,0.589,0.559,-,CALM,��
2022/06/17,01:00,0.573,0.841,0.530,1.008,0.712,0.347,0.589,0.556,-,CALM,��
2022/06/17,01:10,0.573,0.840,0.530,1.008,0.710,0.346,0.589,0.560,-,CALM,��
2022/06/17,01:20,0.572,0.839,0.530,1.009,0.711,0.345,0.590,0.559,���쐼,0.9,��
2022/06/17,01:30,0.572,0.838,0.530,1.010,0.710,0.346,0.589,0.558,���쐼,2.0,��
2022/06/17,01:40,0.572,0.840,0.530,1.008,0.710,0.347,0.590,0.558,���쐼,2.3,��
2022/06/17,01:50,0.572,0.838,0.529,1.008,0.712,0.347,0.589,0.558,���쐼,1.9,��
2022/06/17,02:00,0.573,0.838,0.529,1.009,0.713,0.345,0.589,0.558,��,1.2,��
2022/06/17,02:10,0.571,0.840,0.531,1.009,0.709,0.347,0.590,0.558,�k�k��,0.6,��
2022/06/17,02:20,0.572,0.840,0.531,1.010,0.712,0.346,0.589,0.556,���쐼,1.5,��
2022/06/17,02:30,0.573,0.839,0.530,1.008,0.711,0.346,0.591,0.558,�쐼,1.2,��
2022/06/17,02:40,0.574,0.836,0.530,1.010,0.711,0.345,0.591,0.558,��,0.9,��
2022/06/17,02:50,0.574,0.841,0.530,1.009,0.710,0.345,0.591,0.557,���k��,0.6,��
2022/06/17,03:00,0.571,0.840,0.530,1.009,0.711,0.346,0.589,0.559,�k,0.6,��
2022/06/17,03:10,0.573,0.838,0.529,1.010,0.711,0.347,0.589,0.558,-,CALM,��
2022/06/17,03:20,0.573,0.838,0.532,1.009,0.712,0.345,0.589,0.557,�쐼,0.6,��
2022/06/17,03:30,0.573,0.840,0.530,1.008,0.711,0.346,0.591,0.558,���쐼,1.5,��
2022/06/17,03:40,0.572,0.841,0.530,1.007,0.711,0.348,0.589,0.557,���쐼,1.7,��
2022/06/17,03:50,0.571,0.840,0.529,1.009,0.710,0.346,0.590,0.557,�쐼,2.8,��
2022/06/17,04:00,0.574,0.841,0.529,1.010,0.713,0.345,0.590,0.557,��쐼,2.8,��
2022/06/17,04:10,0.572,0.838,0.530,1.009,0.711,0.346,0.590,0.560,��,2.6,��
2022/06/17,04:20,0.573,0.839,0.531,1.009,0.711,0.346,0.589,0.558,��쓌,2.5,��
2022/06/17,04:30,0.571,0.838,0.531,1.009,0.712,0.346,0.590,0.558,�쐼,1.2,��
2022/06/17,04:40,0.573,0.838,0.531,1.008,0.711,0.347,0.588,0.557,��쐼,1.5,��
2022/06/17,04:50,0.573,0.841,0.531,1.010,0.709,0.344,0.587,0.557,��쐼,1.7,��
2022/06/17,05:00,0.574,0.839,0.531,1.008,0.711,0.345,0.590,0.557,�쐼,1.1,��
2022/06/17,05:10,0.571,0.838,0.530,1.010,0.710,0.345,0.590,0.558,��쐼,0.9,��
2022/06/17,05:20,0.574,0.840,0.529,1.009,0.711,0.344,0.589,0.559,��,0.9,��
2022/06/17,05:30,0.572,0.839,0.530,1.008,0.712,0.346,0.589,0.557,-,CALM,��
2022/06/17,05:40,0.574,0.839,0.531,1.008,0.711,0.347,0.590,0.559,�k��,0.6,��
2022/06/17,05:50,0.572,0.839,0.531,1.010,0.709,0.345,0.590,0.558,���쓌,1.1,��
2022/06/17,06:00,0.570,0.841,0.531,1.010,0.712,0.345,0.589,0.560,�k�k��,0.6,��
2022/06/17,06:10,0.573,0.839,0.531,1.009,0.711,0.345,0.589,0.558,-,CALM,��
2022/06/17,06:20,0.574,0.840,0.532,1.010,0.710,0.345,0.589,0.556,-,CALM,��
2022/06/17,06:30,0.574,0.841,0.531,1.009,0.709,0.345,0.589,0.558,�k�k��,1.1,��
2022/06/17,06:40,0.573,0.841,0.534,1.009,0.710,0.344,0.589,0.557,�k�k��,0.6,��
2022/06/17,06:50,0.575,0.842,0.533,1.012,0.711,0.347,0.589,0.558,�k�k��,1.4,��
2022/06/17,07:00,0.575,0.841,0.531,1.011,0.712,0.345,0.590,0.558,�k�k��,2.0,��
2022/06/17,07:10,0.574,0.841,0.533,1.010,0.711,0.345,0.590,0.559,�k�k��,2.6,��
2022/06/17,07:20,0.574,0.841,0.532,1.011,0.712,0.345,0.590,0.557,�k�k��,2.5,��
2022/06/17,07:30,0.574,0.840,0.531,1.010,0.713,0.345,0.590,0.558,�k�k��,2.9,��
2022/06/17,07:40,0.573,0.839,0.531,1.011,0.711,0.342,0.591,0.559,�k��,4.9,��
2022/06/17,07:50,0.573,0.838,0.531,1.009,0.712,0.344,0.588,0.557,�k�k��,6.2,��
2022/06/17,08:00,0.572,0.840,0.531,1.011,0.712,0.344,0.587,0.557,�k�k��,5.1,��
2022/06/17,08:10,0.572,0.837,0.530,1.009,0.713,0.343,0.590,0.557,�k�k��,5.3,��
2022/06/17,08:20,0.572,0.837,0.531,1.010,0.712,0.343,0.588,0.557,�k,3.9,��
2022/06/17,08:30,0.572,0.838,0.531,1.010,0.711,0.343,0.590,0.555,�k�k��,4.6,��
2022/06/17,08:40,0.574,0.834,0.530,1.010,0.712,0.346,0.589,0.557,�k,3.7,��
2022/06/17,08:50,0.573,0.834,0.531,1.011,0.709,0.344,0.589,0.557,�k,2.6,��
2022/06/17,09:00,0.571,0.837,0.530,1.012,0.710,0.344,0.588,0.556,�k�k��,2.6,��
2022/06/17,09:10,0.573,0.835,0.531,1.011,0.711,0.343,0.590,0.556,�k�k��,1.5,��
2022/06/17,09:20,0.571,0.834,0.528,1.009,0.709,0.344,0.591,0.555,�k�k��,3.0,��
2022/06/17,09:30,0.573,0.836,0.530,1.012,0.710,0.344,0.590,0.556,�k��,1.4,��
2022/06/17,09:40,0.571,0.836,0.530,1.009,0.709,0.344,0.591,0.556,�k��,1.7,��
2022/06/17,09:50,0.574,0.838,0.532,1.011,0.710,0.345,0.590,0.556,�k�k��,2.5,��
2022/06/17,10:00,0.572,0.838,0.530,1.010,0.712,0.346,0.588,0.556,�k��,2.8,��
2022/06/17,10:10,0.573,0.839,0.530,1.011,0.711,0.345,0.588,0.556,�k,2.0,��
2022/06/17,10:20,0.574,0.840,0.530,1.009,0.709,0.345,0.590,0.555,�k�k��,1.7,��
2022/06/17,10:30,0.573,0.838,0.530,1.009,0.710,0.345,0.591,0.556,�k�k��,2.6,��
2022/06/17,10:40,0.575,0.838,0.531,1.010,0.714,0.343,0.591,0.556,�k��,1.1,��
2022/06/17,10:50,0.575,0.840,0.532,1.008,0.712,0.344,0.590,0.557,�k�k��,1.2,��
2022/06/17,11:00,0.574,0.839,0.531,1.011,0.713,0.344,0.589,0.557,�k,2.0,��
2022/06/17,11:10,0.573,0.842,0.531,1.010,0.714,0.344,0.590,0.557,�k�k��,2.6,��
2022/06/17,11:20,0.574,0.840,0.530,1.010,0.713,0.344,0.589,0.557,�k��,1.5,��
2022/06/17,11:30,0.574,0.841,0.532,1.009,0.712,0.342,0.591,0.557,�k�k��,1.4,��
2022/06/17,11:40,0.574,0.841,0.533,1.009,0.714,0.344,0.589,0.555,�k��,1.1,��
2022/06/17,11:50,0.574,0.842,0.535,1.012,0.713,0.345,0.590,0.556,���k��,1.7,��
2022/06/17,12:00,0.573,0.843,0.533,1.011,0.713,0.344,0.589,0.558,���k��,2.0,��
2022/06/17,12:10,0.571,0.843,0.534,1.012,0.714,0.344,0.589,0.557,��,2.0,��
2022/06/17,12:20,0.571,0.844,0.531,1.008,0.715,0.345,0.591,0.557,��,0.6,��
2022/06/17,12:30,0.573,0.842,0.533,1.012,0.714,0.345,0.590,0.559,��쓌,1.9,��
2022/06/17,12:40,0.571,0.841,0.534,1.011,0.714,0.346,0.590,0.557,���쓌,1.2,��
2022/06/17,12:50,0.573,0.843,0.533,1.010,0.715,0.345,0.590,0.556,���쓌,0.9,��
2022/06/17,13:00,0.572,0.841,0.533,1.010,0.714,0.344,0.590,0.558,���k��,0.9,��
2022/06/17,13:10,0.575,0.841,0.532,1.010,0.714,0.346,0.589,0.557,�k,1.5,��
2022/06/17,13:20,0.572,0.841,0.528,1.011,0.714,0.347,0.589,0.557,�k,1.9,��
2022/06/17,13:30,0.572,0.839,0.530,1.010,0.713,0.344,0.589,0.557,�k,3.0,��
2022/06/17,13:40,0.572,0.840,0.530,1.010,0.714,0.345,0.590,0.556,�k�k��,1.7,��
2022/06/17,13:50,0.570,0.841,0.532,1.007,0.713,0.345,0.590,0.559,��,1.1,��
2022/06/17,14:00,0.569,0.840,0.528,1.009,0.714,0.345,0.589,0.556,���쐼,1.5,��
2022/06/17,14:10,0.571,0.842,0.531,1.014,0.713,0.347,0.589,0.556,���쐼,1.2,��
2022/06/17,14:20,0.570,0.841,0.531,1.012,0.714,0.345,0.590,0.557,��,1.5,��
2022/06/17,14:30,0.573,0.841,0.532,1.012,0.713,0.346,0.591,0.557,��쓌,1.1,��
2022/06/17,14:40,0.571,0.842,0.532,1.013,0.714,0.346,0.590,0.556,�쓌,1.2,��
2022/06/17,14:50,0.573,0.843,0.531,1.011,0.714,0.345,0.592,0.557,��,2.0,��
2022/06/17,15:00,0.572,0.844,0.532,1.010,0.714,0.345,0.591,0.558,��쓌,2.0,��
2022/06/17,15:10,0.573,0.842,0.530,1.011,0.714,0.346,0.592,0.557,��쓌,3.2,��
2022/06/17,15:20,0.573,0.842,0.532,1.012,0.715,0.347,0.591,0.557,��쓌,5.0,��
2022/06/17,15:30,0.574,0.843,0.531,1.011,0.716,0.345,0.593,0.558,��쓌,4.8,��
2022/06/17,15:40,0.573,0.841,0.532,1.013,0.712,0.347,0.593,0.557,��,4.8,��
2022/06/17,15:50,0.574,0.843,0.531,1.011,0.716,0.347,0.594,0.558,��,4.2,��
2022/06/17,16:00,0.574,0.844,0.532,1.013,0.712,0.348,0.593,0.558,�쓌,6.1,��
2022/06/17,16:10,0.575,0.841,0.532,1.011,0.715,0.345,0.593,0.559,��쓌,6.1,��
2022/06/17,16:20,0.573,0.843,0.534,1.011,0.717,0.346,0.593,0.558,��쓌,4.8,��
2022/06/17,16:30,0.574,0.843,0.532,1.011,0.716,0.345,0.592,0.556,��쓌,5.6,��
2022/06/17,16:40,0.571,0.843,0.531,1.013,0.715,0.346,0.594,0.557,��쓌,6.4,��
2022/06/17,16:50,0.573,0.843,0.531,1.012,0.715,0.346,0.593,0.557,�쓌,5.8,��
2022/06/17,17:00,0.576,0.840,0.531,1.014,0.716,0.347,0.594,0.558,�쓌,6.2,��
2022/06/17,17:10,0.574,0.843,0.531,1.011,0.715,0.344,0.594,0.557,��쓌,6.7,��
2022/06/17,17:20,0.577,0.843,0.533,1.015,0.714,0.345,0.592,0.558,��쓌,6.9,��
2022/06/17,17:30,0.575,0.843,0.532,1.013,0.717,0.347,0.593,0.557,��쓌,6.1,��
2022/06/17,17:40,0.575,0.845,0.532,1.013,0.716,0.346,0.592,0.558,��쓌,6.3,��
2022/06/17,17:50,0.575,0.843,0.532,1.013,0.714,0.346,0.594,0.558,��쓌,5.1,��
2022/06/17,18:00,0.574,0.844,0.533,1.016,0.713,0.347,0.592,0.557,��쓌,5.2,��
2022/06/17,18:10,0.572,0.846,0.532,1.014,0.714,0.348,0.591,0.558,��쓌,5.5,��
2022/06/17,18:20,0.574,0.845,0.532,1.013,0.715,0.346,0.591,0.558,��쓌,4.2,��
2022/06/17,18:30,0.573,0.846,0.530,1.013,0.717,0.345,0.591,0.560,��쓌,6.5,��
2022/06/17,18:40,0.575,0.846,0.531,1.015,0.714,0.347,0.592,0.560,��쓌,6.9,��
2022/06/17,18:50,0.573,0.846,0.534,1.013,0.714,0.346,0.592,0.559,��쓌,4.8,��
2022/06/17,19:00,0.576,0.845,0.532,1.017,0.715,0.347,0.592,0.560,��,4.0,��
2022/06/17,19:10,0.573,0.847,0.530,1.018,0.717,0.346,0.593,0.559,��,3.8,��
2022/06/17,19:20,0.575,0.846,0.532,1.018,0.716,0.346,0.592,0.559,��,4.6,��
2022/06/17,19:30,0.578,0.848,0.534,1.017,0.718,0.347,0.593,0.560,��,4.1,��
2022/06/17,19:40,0.578,0.847,0.532,1.017,0.717,0.346,0.594,0.558,��,2.6,��
2022/06/17,19:50,0.577,0.845,0.534,1.018,0.716,0.346,0.593,0.560,��쐼,2.2,��
2022/06/17,20:00,0.576,0.848,0.534,1.016,0.716,0.347,0.594,0.559,�쐼,2.0,��
2022/06/17,20:10,0.576,0.848,0.534,1.016,0.716,0.348,0.594,0.560,��쐼,2.2,��
2022/06/17,20:20,0.575,0.846,0.534,1.016,0.718,0.347,0.595,0.559,��쐼,2.0,��
2022/06/17,20:30,0.577,0.847,0.535,1.018,0.718,0.348,0.595,0.559,�쐼,2.8,��
2022/06/17,20:40,0.578,0.847,0.533,1.015,0.720,0.346,0.593,0.559,�쐼,3.0,��
2022/06/17,20:50,0.577,0.846,0.535,1.018,0.716,0.347,0.593,0.559,��쐼,2.3,��
2022/06/17,21:00,0.577,0.846,0.534,1.016,0.716,0.346,0.593,0.559,�쐼,2.8,��
2022/06/17,21:10,0.579,0.847,0.532,1.019,0.719,0.348,0.593,0.559,��쐼,2.8,��
2022/06/17,21:20,0.576,0.845,0.534,1.018,0.719,0.346,0.594,0.562,��쐼,3.5,��
2022/06/17,21:30,0.578,0.847,0.534,1.019,0.718,0.347,0.594,0.559,��쐼,3.5,��
2022/06/17,21:40,0.579,0.846,0.535,1.019,0.717,0.348,0.594,0.559,��쐼,3.7,��
2022/06/17,21:50,0.578,0.848,0.535,1.017,0.720,0.348,0.593,0.560,��쐼,3.8,��
2022/06/17,22:00,0.578,0.847,0.534,1.016,0.717,0.347,0.595,0.561,��쐼,4.0,��
2022/06/17,22:10,0.577,0.847,0.535,1.019,0.719,0.348,0.595,0.561,��쐼,4.4,��
2022/06/17,22:20,0.577,0.845,0.534,1.020,0.717,0.345,0.595,0.559,��쐼,4.1,��
2022/06/17,22:30,0.578,0.846,0.534,1.020,0.718,0.348,0.595,0.559,��쐼,4.5,��
2022/06/17,22:40,0.578,0.848,0.533,1.017,0.716,0.347,0.593,0.559,��쐼,4.4,��
2022/06/17,22:50,0.578,0.846,0.533,1.016,0.718,0.345,0.595,0.558,��쐼,4.3,��
2022/06/17,23:00,0.578,0.847,0.534,1.015,0.716,0.347,0.594,0.561,��쐼,3.8,��
2022/06/17,23:10,0.577,0.847,0.535,1.015,0.718,0.348,0.595,0.560,�쐼,3.0,��
2022/06/17,23:20,0.576,0.845,0.535,1.016,0.717,0.347,0.594,0.559,��쐼,2.2,��
2022/06/17,23:30,0.578,0.844,0.534,1.019,0.719,0.347,0.595,0.559,��쐼,2.9,��
2022/06/17,23:40,0.577,0.846,0.533,1.017,0.718,0.347,0.595,0.559,��,3.3,��
2022/06/17,23:50,0.579,0.845,0.533,1.016,0.719,0.348,0.594,0.560,��쐼,3.5,��
